Погода в Борисоглебске

Погода в Борисоглебске : погода сейчас, прогноз погоды и архив. Всё, что Вы хотите узнать о погоде в Борисоглебске!

Хотите узнать прогноз погоды в Борисоглебске? Тогда Вам сюда: Погода в Борисоглебске

Поиск расширенной информации на нашем сайте:

Другие новости

Новости СМИ2

Главная страница сайта

Новости сайта

03.07.2017

Напоминаем, что на нашем специализированном сайте Метеоцентр.Азия вы можете получить высокодетализированные автоматические прогнозы погоды по пунктам России, СНГ и мира в авиационном формате (включающие направление и скорость ветра, видимость, явления погоды, количество и форму облачности, нижнюю и верхнюю границу облачности).


Погода в Борисоглебске - сегодня

Время (UTC), дата Ветер
(°,м/с) 
Видим.   Явления Облачность Т
(°С)
Тd
(°С)
f(%) Тe
(°С)
Pmin
(гПа)
dP
(гПа)
Po
(мм)
O2
(г/м3)
Тmin Tmax R s Состояние
почвы
06 20.04.18 020 (С) 4000 м  слаб. ливневой дождь  10/10 300 м кучево-дожд. 
[Cb cap]
+7.2 +5.6 90 +6  1000.9  2.1  741  290           
15 20.04.18 030 (СВ) 5-10{11}  10 км    8/8 1000 м 
[Cu med, cong]
+11.4 +5.8 68 +10  1008  746  288    +11.6     
18 20.04.18 010 (С) 10 км    ясно 
+9.1 +3.8 69 +9  1010.3  2.2  748  291           
21 20.04.18 тихо ()   10 км    ясно 
+3.6 +0.4 80 +4  1011.5  0.9  749  298           
00 21.04.18 тихо ()   4000 м  дымка  ясно 
+0.9 -0.8 88 +1  1012  0.3  749  301           
03 21.04.18 тихо ()   4000 м  дымка  4/0 средняя 
[Ac trans]
-0.2 -1.7 90 -0  1012.2  0.2  749  302  -0.2        замёрзшая 
06 21.04.18 220 (ЮЗ) 10 км    9/9 600 м 
[Sc]
+8.3 +3.8 73 +8  1011.3  -0.5  749  292           
09 21.04.18 220 (ЮЗ) 20000 м    8/0 средняя 
[Ac trans]
+14 +5.3 56 +14  1008.6  -2.4  747  285           
18 21.04.18 210 (ЮЗ) 10 км    4/0 средняя 
[Ac trans]
+13.3 +6.4 63 +13  998.7  -3  740  283           
21 21.04.18 220 (ЮЗ) 10 км    6/0 средняя 
[Ac trans]
+13.5 +7.8 68 +14  994.6  -4  737  281           
03 22.04.18 300 (СЗ) 3{14}  10 км  {ливн. осадки}  8/3 300 м кучево-дожд., средняя 
[Cb calv|Ac trans]
+8.4 +4.3 75 +8  995.2  2.2  737  287  +8.4    0.9     
18 22.04.18 320 (СЗ) 10 км    9/9 600 м 
[Sc]
+8.3 +0.2 57 +8  1002.5  2.1  742  290           
21 22.04.18 310 (СЗ) 10 км    9/9 600 м 
[Sc]
+5.3 -1.5 61 +4  1004.7  744  294           
00 23.04.18 300 (СЗ) 10 км    6/0 средняя 
[Ac trans]
+2.1 -3.2 68 +1  1006  1.2  745  298           
06 23.04.18 350 (С) 20000 м    ясно средняя 
[Ac trans]
+3.8 -1.8 67 +3  1008.6  1.3  747  297           
09 23.04.18 330 (СЗ) 20000 м    9/9 600 м 
[Sc]
+5 -4.4 51 +3  1009.9  1.3  748  296           
15 23.04.18 300 (СЗ) 4-12{12}  20000 м    4/0 средняя 
[Ac trans]
+8.4 -3 44 +7  1010.9  0.7  749  293    +8.7       
18 23.04.18 300 (СЗ) 10 км    ясно 
+4.8 -4 53 +6  1012.3  1.2  749  297           
21 23.04.18 290 (З) 10 км    ясно 
+2.3 -5.6 56 +3  1013.5  1.1  750  300           
00 24.04.18 250 (З) 10 км    ясно 
+0.2 -4.9 69 +1  1013.9  0.6  750  303           
06 24.04.18 290 (З) 20000 м    ясно 
+7.7 -4.1 43 +6  1015.5  0.8  752  295           
09 24.04.18 310 (СЗ) 4{10}  20000 м    3/3 1000 м 
[Cu hum]
+11 -3.3 37 +10  1015.2  -0.2  752  292           
12 24.04.18 300 (СЗ) 20000 м    3/3 1000 м 
[Cu hum]
+13.4 -3 32 +13  1014.5  -0.7  751  289           
18 24.04.18 190 (Ю) 10 км    8/0 верхняя 
[Ci fib]
+6.7 -1.6 55 +8  1014.2  0.2  751  295           
21 24.04.18 тихо ()   10 км    8/0 верхняя 
[Ci fib]
+5.9 -1 61 +6  1013.6  -0.6  750  296           
Время (UTC), дата Ветер
(°,м/с) 
Видим.   Явления Облачность Т
(°С)
Тd
(°С)
f(%) Тe
(°С)
Pmin
(гПа)
dP
(гПа)
Po
(мм)
O2
(г/м3)
Тmin Tmax R s Состояние
почвы

Для получения пояснительной информации подведите курсор к названию столбца.

ПОГОДА в Борисоглебске - архив

Всё, что Вы хотите узнать о погоде в Борисоглебске - удобно и подробно!

Выберите нужную дату (начиная с 1 января 2015* года) и нажмите кнопку "Найти".
Будут отображены архивные сводки погоды по пункту Борисоглебск, начиная с указанной даты.


Отображать данные в формате CSV (для использования в таблицах Excel)


Внимание! Наш архив погоды предназначен исключительно для личного некоммерческого использования в познавательных целях. Если Вам необходимы официальные справки о состоянии погоды (для производственных, юридических, коммерческих и т.п. целей), обращайтесь в органы Росгидромета.

*Примечание: данная дата относится к архиву по метеостанциям СССР (Россия, СНГ, Балтия).
Архив по метеостанциям Зарубежной Европы и Азии (кроме Китая) хранится 10 дней, по другим регионам земного шара (Китай, Африка, Америка, Австралия, Океания) - 1 день.

Борисоглебск - район местоположения метеостанции


Название, широта, долгота, высота метеостанции:
Борисоглебск 51.4°ш. 42.1°д. 106 м над ур. моря [Российская Федерация]

Дополнительная информация

В oтличие oт бoльшинства пoгoдных сайтoв мы публикуем пoдрoбную метеoинфoрмацию в детальнoм прoфессиoнальнoм фoрмате.

Характеристики температуры и влажнoсти вoздуха измеряются на высoте 2 м в тени вдали oт зданий и деревьев.
Скoрoсть ветра измеряется на высoте 10 м (на урoвне рoста челoвека скoрoсть ветра ниже в 1.5-2 раза). Если метеoстанция нахoдится в гoрoде или в лесу, тo скoрoсть ветра занижена на 2-4 м/с пo сравнению с oткрытым местoм. Скoрoсть ветра над акватoриями крупных рек и oзёр, а также на вершинах хoлмoв на 2-5 м/с выше, чем в oбычных услoвиях.
Атмoсфернoе давление в разных тoчках местнoсти мoжет значительнo oтличаться oт давления на метеoстанции, в зависимoсти oт услoвий рельефа (при пoдъёме на 10 м давление пoнижается примернo на 1 мм рт.ст.).